Flag for Germany Past Weather in Neunkirchen (Saar), Saarland, Germany — Yesterday and Last 2 Weeks

Now
66 °F

Scattered showers. Partly sunny.


Feels Like: 66 °F
Forecast: 56 / 71 °F
Wind: 7 mph from West

Location: Saarbruecken / Ensheim

Current Time: Jul 28, 2016 at 6:26:24 PM

Latest Report: Jul 28, 2016 at 5:50 PM


Visibility: N/A

Pressure: 30.01 "Hg

Humidity: 94%

Dew Point: 64 °F

Location of Neunkirchen (Saar)Location

Past Weather in Neunkirchen (Saar) — Graph

°F

Neunkirchen (Saar) Temperature Yesterday

Maximum temperature yesterday: 77 °F (at 3:50 PM)
Minimum temperature yesterday: 57 °F (at 6:20 AM)
Average temperature yesterday: 67 °F

High & Low Weather Summary for the Past Weeks

 TemperatureHumidityPressure
High90 °F (Jul 20, 2:50 PM)100% (Jul 15, 12:50 AM)30.33 "Hg (Jul 15, 12:50 AM)
Low46 °F (Jul 15, 4:50 AM)31% (Jul 20, 5:50 PM)29.95 "Hg (Jul 20, 4:50 PM)
Average68 °F75%30.12 "Hg
* Reported Jul 13 6:50 PM — Jul 28 5:20 PM, Neunkirchen (Saar), Weather by CustomWeather, © 2016

Note: Actual official high and low records may vary slightly from our data, if they occured in-between our weather recording intervals... More about our weather records

Advertising

Neunkirchen (Saar) Weather History for the Previous 24 Hours

Scroll right to see more
 ConditionsComfort  
Time TempWeatherWind HumidityBarometerVisibility
5:20 PM
Thu, Jul 28
64 °FRain showers. Broken clouds.17 mph88%30.04 "HgN/A
4:50 PM73 °FBroken clouds.8 mph61%30.01 "HgN/A
4:20 PM73 °FBroken clouds.10 mph61%30.04 "HgN/A
3:50 PM73 °FBroken clouds.8 mph65%30.04 "HgN/A
3:20 PM72 °FBroken clouds.7 mph69%30.04 "HgN/A
2:50 PM70 °FBroken clouds.7 mph73%30.04 "HgN/A
2:20 PM72 °FBroken clouds.8 mph69%30.04 "HgN/A
1:50 PM72 °FSprinkles. Broken clouds.7 mph69%30.07 "HgN/A
1:20 PM72 °FSprinkles. Broken clouds.9 mph65%30.07 "HgN/A
12:50 PM70 °FSprinkles. Broken clouds.9 mph73%30.07 "HgN/A
12:20 PM70 °FSprinkles. Broken clouds.7 mph73%30.07 "HgN/A
11:50 AM70 °FBroken clouds.9 mph73%30.07 "HgN/A
11:20 AM68 °FBroken clouds.7 mph78%30.07 "HgN/A
10:50 AM66 °FPassing clouds.7 mph78%30.07 "HgN/A
10:20 AM64 °FPassing clouds.6 mph83%30.07 "HgN/A
9:50 AM64 °FMore clouds than sun.2 mph83%30.07 "HgN/A
9:20 AM63 °FMore clouds than sun.2 mph83%30.07 "HgN/A
8:50 AM63 °FSunny.2 mph83%30.07 "Hg10 mi
8:20 AM61 °FSunny.2 mph88%30.07 "Hg10 mi
7:50 AM59 °FSunny.3 mph94%30.07 "Hg10 mi
7:20 AM59 °FSunny.1 mph94%30.07 "Hg10 mi
6:50 AM59 °FClear.No wind88%30.07 "Hg10 mi
6:20 AM59 °FPassing clouds.3 mph94%30.07 "HgN/A
5:50 AM59 °FClear.No wind88%30.07 "Hg10 mi
5:20 AM59 °FClear.No wind88%30.07 "Hg10 mi
4:50 AM59 °FClear.2 mph94%30.07 "Hg10 mi
4:20 AM59 °FClear.No wind88%30.07 "Hg10 mi
3:50 AM59 °FClear.No wind88%30.07 "Hg10 mi
3:20 AM61 °FClear.No wind83%30.07 "Hg10 mi
2:50 AM61 °FClear.1 mph88%30.07 "Hg10 mi
2:20 AM63 °FClear.3 mph83%30.07 "Hg10 mi
1:50 AM63 °FClear.No wind83%30.09 "Hg10 mi
1:20 AM61 °FClear.No wind88%30.09 "Hg10 mi
12:50 AM61 °FClear.No wind88%30.09 "Hg10 mi
12:20 AM61 °FClear.No wind83%30.09 "Hg10 mi
11:50 PM
Wed, Jul 27
61 °FClear.3 mph83%30.09 "Hg10 mi
11:20 PM63 °FClear.1 mph77%30.09 "Hg10 mi
10:50 PM63 °FClear.2 mph77%30.09 "Hg10 mi
10:20 PM64 °FClear.3 mph73%30.09 "Hg10 mi
9:50 PM64 °FSunny.5 mph73%30.07 "Hg10 mi
9:20 PM66 °FPassing clouds.6 mph68%30.07 "HgN/A
8:50 PM68 °FPassing clouds.6 mph64%30.07 "HgN/A
8:20 PM70 °FPassing clouds.12 mph60%30.07 "HgN/A
7:50 PM72 °FMild.10 mph57%30.07 "HgN/A
7:20 PM73 °FScattered clouds.12 mph53%30.07 "HgN/A
6:50 PM73 °FScattered clouds.10 mph53%30.04 "HgN/A
6:20 PM73 °FPassing clouds.13 mph53%30.04 "HgN/A
Weather by CustomWeather, © 2016

See weather overviewHow to use our weather pages